Probability
0 1 1 0 0 0 0 0 0 1 3 3 2 1 0 0 1 1 1 1 0 0 0 0 1 0 0 0 0 1 0 0 0 0 0 0 0 0 0 0 0 1 2
1 2 2 1 0 0 1 1 1 2 3 2 1 0 0 0 1 2 2 2 1 1 1 1 2 1 0 0 0 1 0 0 0 0 0 0 0 0 0 0 0 1 2
0 1 3 3 1 1 2 2 3 3 3 2 1 1 1 1 2 3 3 3 3 2 2 3 3 3 1 0 0 0 0 0 0 0 0 0 0 0 0 0 0 0 1
1 2 3 5 5 5 4 4 3 3 2 2 2 3 3 2 3 3 3 3 3 3 3 4 5 5 3 1 0 0 0 1 1 0 0 0 0 0 0 0 0 0 0
5 4 4 6 9 10 9 5 3 2 1 1 3 4 4 3 3 3 3 3 3 3 4 5 5 5 4 2 1 0 0 1 1 2 1 0 0 0 0 0 0 0 0
8 7 7 8 10 13 12 8 3 1 0 0 1 3 3 3 2 3 3 3 3 3 3 4 4 5 5 3 2 1 1 2 3 3 2 1 0 0 0 0 0 0 0
8 9 10 10 11 13 13 10 6 3 2 1 2 2 3 2 2 2 3 3 3 4 4 4 4 5 5 4 2 2 3 3 3 3 2 1 0 0 0 0 0 0 0
8 9 11 13 13 13 14 13 10 8 6 5 4 3 2 1 1 1 2 3 4 5 6 6 6 6 5 4 3 3 3 2 2 2 1 0 0 0 0 0 0 0 0
9 8 9 11 12 12 14 15 15 13 11 10 8 7 5 3 2 2 2 3 4 5 6 7 7 7 6 7 6 5 3 2 1 1 0 0 0 0 0 0 0 0 0
10 8 7 9 10 10 12 15 17 16 16 15 13 12 11 9 7 6 5 5 5 5 5 7 8 8 8 9 10 9 6 4 2 2 1 1 0 0 0 0 0 0 0
10 9 8 9 10 11 13 16 18 18 19 19 17 16 15 13 12 10 9 8 7 5 6 8 8 8 10 12 12 12 11 9 7 6 5 3 1 0 0 0 0 0 0
10 10 10 10 13 17 18 19 20 20 22 23 22 21 19 19 19 19 17 15 12 9 8 9 9 9 11 13 13 13 13 12 11 11 9 5 3 2 2 2 2 2 1
9 11 12 14 18 21 22 22 23 23 25 28 29 27 26 27 30 30 25 21 17 13 11 11 12 12 13 14 14 15 16 14 12 12 10 7 4 4 4 4 5 5 4
10 11 13 16 19 21 21 23 25 26 27 29 32 32 31 33 34 32 27 22 18 16 14 13 14 15 15 15 17 18 18 16 13 13 12 9 6 4 4 5 7 8 7
10 10 12 14 16 18 20 22 23 25 27 28 31 32 32 32 31 28 24 21 19 18 16 15 15 15 15 15 16 19 19 17 14 14 13 10 7 3 2 3 6 7 6
9 9 10 11 11 14 18 20 21 23 25 25 26 26 26 27 26 24 22 21 21 20 18 17 16 15 13 11 12 15 17 16 14 13 12 9 6 2 1 1 2 3 3
10 10 11 11 10 11 14 17 19 20 20 20 20 20 21 22 22 20 18 20 21 19 18 18 18 16 13 9 7 9 14 16 15 13 11 8 4 2 1 1 1 1 1
11 10 10 10 9 10 11 13 15 16 17 17 16 16 17 18 18 17 16 17 18 17 16 17 18 18 15 10 6 7 11 14 16 15 13 10 6 2 1 1 0 1 1
9 8 7 7 6 7 8 10 11 13 14 14 13 13 14 16 17 17 15 15 16 14 12 13 16 17 15 11 6 7 9 13 15 15 14 12 7 2 0 0 1 2 2
7 6 6 5 5 6 7 8 9 10 10 10 10 11 12 14 16 16 16 16 16 13 11 12 14 15 14 10 6 5 8 13 14 13 11 9 5 1 0 0 1 2 1
6 6 6 6 7 6 7 7 7 7 8 8 10 11 12 12 13 15 15 16 16 14 13 14 14 13 12 9 4 3 7 12 14 12 9 5 2 0 0 0 1 1 0
7 6 6 7 8 8 9 9 8 8 9 11 11 11 11 11 12 12 13 14 15 15 16 17 15 12 10 7 3 2 4 9 12 12 8 4 1 0 0 0 0 0 0
7 7 7 8 9 9 10 11 11 11 12 12 12 11 10 11 12 12 11 11 11 13 15 17 15 11 8 6 4 2 2 4 8 8 5 2 1 0 0 0 0 0 1
7 7 7 7 8 9 11 12 12 13 12 12 11 10 11 12 13 13 12 10 9 10 12 14 13 9 6 6 6 4 2 3 4 5 4 2 1 0 0 0 0 1 2
6 6 6 6 6 8 11 11 11 11 12 11 10 10 11 11 11 10 9 9 8 8 10 11 9 7 5 6 6 5 4 3 3 4 4 3 2 1 1 1 2 2 3
4 5 6 6 6 7 9 9 8 10 12 12 10 10 10 9 8 7 6 6 7 8 9 8 7 6 5 4 4 4 4 4 3 4 5 4 3 2 2 3 3 3 3
Wind_Speed
8 8 8 8 7 7 7 7 7 5 5 3 3 2 2 2 2 2 3 3 3 3 3 2 2 2 2 2 2 1 1 1 0 1 2 2 1 1 1 2 2 2 3
7 8 8 8 9 9 8 8 7 6 6 4 3 2 2 2 2 1 2 3 3 4 4 4 3 3 2 2 2 2 1 0 1 1 1 2 3 2 1 1 2 2 2
10 10 10 10 9 10 10 9 8 7 6 5 3 2 1 1 0 1 1 2 3 3 3 4 3 3 3 3 3 3 3 1 1 1 2 1 2 2 2 2 1 1 1
10 9 10 10 10 10 9 8 8 7 6 6 5 6 4 4 4 2 2 2 3 3 4 4 4 3 3 3 3 3 2 2 1 1 1 2 2 1 2 2 2 2 2
11 11 11 12 10 9 9 8 7 7 7 7 7 6 5 4 2 2 2 2 2 3 4 4 4 4 3 3 3 3 3 2 2 2 1 1 1 1 2 3 3 2 2
10 10 9 9 9 9 8 8 8 8 7 7 7 7 7 5 4 3 3 3 2 2 3 4 4 4 4 4 4 3 4 3 3 2 2 2 2 2 2 3 3 3 3
9 9 10 10 10 11 11 10 9 9 8 8 8 8 7 7 6 5 4 4 2 3 4 4 4 4 4 4 4 3 3 3 3 3 3 3 3 2 2 2 2 2 2
7 9 11 11 11 12 11 11 11 10 9 9 8 7 6 5 5 5 4 4 4 4 4 4 4 4 4 4 4 3 4 3 3 4 3 3 3 3 3 2 2 2 2
6 8 9 9 10 10 11 12 11 10 9 9 8 7 7 6 5 5 5 4 3 4 4 4 4 4 4 4 4 3 4 3 3 3 3 3 2 3 3 3 3 2 2
4 6 7 8 9 9 9 9 11 11 9 9 9 8 7 7 6 5 5 4 4 4 3 4 4 4 4 4 4 3 3 3 3 3 3 3 2 2 2 3 3 3 3
4 4 4 6 7 7 7 8 9 9 9 9 8 7 7 7 6 6 6 5 4 4 4 4 4 4 4 4 4 4 4 4 4 3 3 3 3 2 2 2 2 3 3
2 2 2 3 4 6 7 8 8 8 9 8 8 8 7 7 7 7 7 5 5 5 4 4 4 4 4 4 5 5 5 5 5 4 3 4 3 3 2 2 3 3 4
1 1 2 2 3 4 5 6 7 8 7 7 7 7 7 8 8 8 6 6 5 5 5 4 5 4 4 4 5 5 5 5 5 5 5 4 3 3 3 3 3 3 3
2 2 2 1 2 2 3 4 6 6 6 6 8 8 8 8 7 6 5 5 5 5 5 4 4 4 4 4 4 4 4 4 4 4 4 4 4 4 4 3 3 3 2
1 2 1 1 1 1 1 2 3 3 5 6 7 8 7 6 5 5 5 5 5 6 5 4 4 4 4 4 4 4 5 4 4 4 4 4 5 5 4 3 3 3 2
1 1 1 0 1 1 1 1 2 2 3 5 5 4 4 5 5 6 5 5 5 5 5 5 5 4 4 4 5 4 4 4 5 4 4 4 4 4 5 5 5 4 4
1 1 1 2 2 2 2 2 2 2 2 3 3 3 4 4 5 6 5 5 6 6 5 5 5 5 5 5 5 5 3 4 4 4 3 3 3 3 3 3 2 3 4
2 2 2 2 2 1 1 1 0 1 2 2 3 3 4 4 4 5 6 6 5 5 5 5 5 5 4 5 4 4 3 2 3 4 4 4 3 3 3 2 1 1 2
3 3 3 2 1 1 1 1 0 0 1 2 3 3 4 4 4 5 5 5 5 5 4 4 5 5 4 5 5 4 3 2 3 3 3 4 3 3 4 2 2 2 2
1 1 1 0 1 1 2 2 1 1 3 4 3 3 3 4 5 5 4 3 4 4 4 4 4 5 5 5 6 5 3 3 2 2 2 3 3 3 4 3 3 3 3
1 1 1 1 2 1 2 2 2 3 4 3 2 2 3 4 4 3 2 2 2 3 3 3 3 3 4 4 6 6 3 4 3 3 2 2 3 3 3 3 3 4 3
2 1 0 2 2 1 2 2 4 4 2 1 2 2 2 3 2 2 2 2 2 2 2 2 2 2 2 4 5 6 6 5 4 3 3 2 3 3 3 3 3 3 2
3 2 1 2 2 2 3 4 4 2 2 1 2 2 1 2 2 3 2 2 2 2 2 3 3 2 2 2 4 6 6 5 3 2 3 3 3 3 2 3 3 2 1
4 3 2 3 3 3 3 4 3 2 2 2 2 2 2 2 1 1 2 2 3 3 3 4 3 3 2 2 2 3 3 3 2 2 3 3 2 1 2 1 1 1 2
4 3 3 4 5 4 4 4 3 3 3 3 2 2 2 2 2 1 1 3 4 5 5 4 4 4 4 4 5 4 3 3 2 2 1 1 1 1 1 1 1 1 1
4 3 4 4 5 4 4 4 3 4 4 3 3 2 2 2 1 1 1 2 3 4 5 6 5 4 5 5 5 5 5 5 6 4 2 2 2 2 2 2 2 1 2
Wind_Direction
201 189 189 187 180 180 180 184 182 181 166 161 168 174 200 212 218 220 217 210 204 199 192 203 199 194 201 215 208 192 208 236 178 46 351 333 306 284 268 258 256 256 249
196 192 189 187 186 189 190 189 189 182 181 182 171 171 172 196 207 222 219 213 209 206 204 199 203 199 200 207 201 182 178 242 137 124 54 345 338 334 317 278 248 258 248
204 198 193 193 189 193 195 196 192 188 188 179 149 133 98 56 145 223 228 225 212 209 207 202 201 200 194 206 210 189 186 207 216 166 151 157 269 309 319 320 311 296 264
205 200 197 196 197 200 195 192 190 190 188 176 173 177 186 202 212 209 216 229 217 214 208 203 200 201 197 207 216 192 187 179 212 215 194 194 188 215 312 320 319 311 289
202 198 199 200 198 195 192 192 187 191 188 184 186 187 200 208 202 193 211 229 230 223 215 206 199 203 204 210 213 200 195 190 196 199 189 186 191 198 218 287 311 320 298
203 199 197 193 193 190 189 187 187 195 190 189 191 194 197 198 198 208 215 229 231 232 225 212 207 207 205 210 211 207 206 207 205 204 195 186 189 199 200 240 277 295 298
195 191 189 191 194 192 192 189 189 198 195 194 199 202 202 198 204 208 212 217 222 228 230 219 212 211 212 212 204 200 212 210 210 213 212 211 213 192 186 206 253 278 291
195 198 197 197 197 195 192 190 192 200 197 197 201 201 199 203 210 210 209 213 219 226 223 214 214 215 210 209 196 203 211 205 215 222 213 216 224 208 200 195 204 272 289
200 205 202 196 194 194 193 193 193 198 199 199 197 198 200 205 209 207 208 213 221 225 217 213 213 212 206 203 194 209 218 209 215 223 219 222 230 219 219 211 201 206 272
203 206 200 195 193 193 193 193 195 198 197 196 201 206 205 205 204 200 208 213 218 222 212 214 215 214 211 206 199 211 217 212 223 218 220 230 237 231 222 215 213 206 216
212 207 203 194 185 182 184 191 197 196 196 198 200 205 203 201 199 203 213 214 212 208 209 212 212 214 217 211 206 216 212 215 229 228 217 229 227 230 229 221 220 216 208
209 205 185 164 169 178 186 191 196 200 202 197 196 203 202 198 203 211 213 207 206 207 208 207 210 218 220 212 213 220 218 217 225 229 223 236 228 228 231 223 231 229 218
125 87 93 139 174 180 190 196 198 203 202 194 195 201 205 207 210 213 212 205 204 206 206 205 214 224 224 216 218 220 220 220 225 224 222 229 220 234 233 228 235 240 237
98 96 100 169 195 182 190 202 206 202 196 194 199 204 209 211 213 211 211 211 209 208 210 212 217 222 226 222 220 218 219 223 227 228 225 226 221 228 231 233 234 231 229
102 120 137 199 197 178 216 221 214 203 195 196 206 213 211 207 205 204 206 208 210 212 205 205 216 220 222 227 220 218 220 221 231 235 232 230 229 228 224 230 227 219 222
159 166 166 193 217 202 226 241 225 213 195 200 210 212 200 198 202 205 204 201 207 208 200 204 211 218 230 233 222 213 218 219 224 233 236 235 233 230 230 228 226 217 217
203 215 216 218 229 235 225 226 231 214 184 197 203 201 202 203 204 204 198 203 208 206 209 213 211 219 232 229 223 214 208 213 220 222 226 236 235 227 232 235 239 245 240
220 233 238 246 247 246 257 266 120 160 192 207 209 205 199 202 199 200 207 209 204 206 214 216 214 216 225 213 210 205 199 211 222 222 220 223 236 225 205 212 233 257 262
223 225 225 224 220 201 183 142 43 21 222 229 227 216 206 208 208 210 214 211 205 209 210 210 207 210 220 204 199 189 191 210 228 230 221 214 222 219 192 184 217 266 284
265 246 244 170 174 218 161 135 189 228 236 238 236 222 209 211 215 218 218 208 199 203 202 215 211 208 215 209 203 192 188 205 218 226 227 221 206 188 177 184 199 237 264
285 243 192 208 232 215 157 169 207 234 248 256 254 237 218 222 223 218 209 200 192 192 198 211 215 210 211 210 208 197 193 201 205 209 216 217 189 182 185 188 203 221 236
317 296 261 278 269 198 168 204 229 234 232 222 225 243 241 236 223 208 210 193 178 189 207 213 227 232 216 203 205 206 208 201 199 207 204 196 184 188 198 202 213 214 216
308 303 260 271 278 239 199 219 238 216 186 195 229 246 246 236 210 195 201 194 185 194 214 215 224 236 231 215 213 214 213 204 194 196 191 187 183 187 197 204 208 196 187
299 292 270 263 269 259 235 226 228 199 180 199 223 229 223 234 221 202 204 200 206 209 212 217 221 227 226 223 207 202 197 182 172 162 148 152 165 177 186 199 202 197 200
289 283 267 260 262 258 250 241 219 184 193 214 221 231 228 223 226 222 231 231 229 216 209 213 204 206 227 229 208 197 198 193 181 152 136 133 139 164 184 203 230 225 215
274 274 274 270 272 268 263 257 230 196 194 215 223 217 221 233 227 218 310 305 256 247 226 223 214 218 218 207 204 199 184 174 165 149 166 194 202 209 217 226 236 237 241